[ hide orbit diagram ]
For accurate long-term ephemerides, please instead use our Horizons system.This orbit viewer was implemented using two-body methods, and hence should not be used for determining accurate long-term trajectories (over several years or decades) or planetary encounter circumstances.
Orbital Elements at Epoch 2459000.5 (2020-May-31.0) TDB
Reference: JPL 39 (heliocentric ecliptic J2000)
Element | Value | Uncertainty (1-sigma) | Units |
e | .09804776537447862 | 3.4822e-08 | |
a | 2.809602536755107 | 8.5214e-09 | au |
q | 2.534127286435802 | 9.9022e-08 | au |
i | 9.158355401642412 | 4.1358e-06 | deg |
node | 244.3608792875667 | 2.4718e-05 | deg |
peri | 254.79057253927 | 3.2782e-05 | deg |
M | 284.0151166066496 | 2.2143e-05 | deg |
tp | 2459363.570076700071 (2021-May-29.07007670) | 0.00010615 | TDB |
period | 1720.147768542392 4.71 | 7.8257e-06 2.143e-08 | d yr |
n | .2092843455565765 | 9.5213e-10 | deg/d |
Q | 3.085077787074411 | 9.357e-09 | au |
|
| | Orbit Determination Parameters
Additional Information
|
[ show covariance matrix ]
Physical Parameter Table
Parameter |
Symbol |
Value |
Units |
Sigma |
Reference |
Notes |
absolute magnitude |
H |
8.9 |
|
n/a |
MPO374845 |
|
diameter |
diameter |
53.574 |
km |
0.635 |
urn:nasa:pds:neowise_diameters_albedos::2.0[mainbelt] (http://adsabs.harvard.edu/abs/2012ApJ...759L...8M) |
|
rotation period |
rot_per |
12.283 |
h |
n/a |
LCDB (Rev. 2020-October); Warner et al., 2009 |
Published Reference List: [Behrend, R. (2001) Observatoire de Geneve web site, http://obswww.unige.ch/~behrend/page_cou.html] [Behrend, R. (2005) Observatoire de Geneve web site, http://obswww.unige.ch/~behrend/page_cou.html] [Behrend, R. (2007) Observatoire de Geneve web site, http://obswww.unige.ch/~behrend/page_cou.html] [Hanus, J.; Durech, J.; Broz, M.; Marciniak, A.; et al. (2013) Astron. Astrophys. 551, A67.] |
geometric albedo |
albedo |
0.173 |
|
0.024 |
urn:nasa:pds:neowise_diameters_albedos::2.0[mainbelt] (http://adsabs.harvard.edu/abs/2012ApJ...759L...8M) |
|
Tholen spectral type |
spec_T |
S |
|
n/a |
EAR-A-5-DDR-TAXONOMY-V4.0 |
used 1 color indices |
SMASSII spectral type |
spec_B |
S |
|
n/a |
EAR-A-5-DDR-TAXONOMY-V4.0 |
based on a high-resolution spectrum by Xu et al. (1995) or Bus and Binzel (2002) |
|
403 Cyane (A895 KA) Discovered 1895-May-18 by Charlois, A. at Nice |
Reference: DISCOVERY.DB | Last Updated: 2003-08-29 |
|
[ show close-approach data ]
|